TimeCST,TemperatureF,Dew PointF,Humidity,Sea Level PressureIn,VisibilityMPH,Wind Direction,Wind SpeedMPH,Gust SpeedMPH,PrecipitationIn,Events,Conditions,WindDirDegrees,DateUTC
6:00 AM,71,69,92,29.90,12,NE,3.5,,,,Scattered Clouds,50,2012-11-03 12:00:00
6:00 AM,71.6,69.8,94,29.88,6.2,NE,3.5,-,N/A,,Scattered Clouds,50,2012-11-03 12:00:00
7:00 AM,77.0,71.6,83,29.90,6.2,NW,3.5,-,N/A,,Scattered Clouds,310,2012-11-03 13:00:00
8:00 AM,78.8,71.6,78,29.91,6.2,South,3.5,-,N/A,,Scattered Clouds,190,2012-11-03 14:00:00
9:00 AM,83,72,62,29.94,12,SE,6.9,,,,Scattered Clouds,140,2012-11-03 15:00:00
9:00 AM,84.2,71.6,66,29.93,6.2,SE,6.9,-,N/A,,Scattered Clouds,140,2012-11-03 15:00:00
10:00 AM,86.0,69.8,58,29.92,6.2,East,15.0,-,N/A,,Scattered Clouds,80,2012-11-03 16:00:00
11:00 AM,87.8,69.8,55,29.90,6.2,ENE,10.4,-,N/A,,Mostly Cloudy,70,2012-11-03 17:00:00
12:00 PM,86,70,50,29.89,12,ENE,11.5,,,,Overcast,70,2012-11-03 18:00:00
12:00 PM,86.0,69.8,58,29.88,6.2,ENE,11.5,-,N/A,,Mostly Cloudy,70,2012-11-03 18:00:00
1:00 PM,84.2,69.8,62,29.85,6.2,East,12.7,-,N/A,,Mostly Cloudy,80,2012-11-03 19:00:00
2:00 PM,86.0,69.8,58,29.82,6.2,NE,12.7,-,N/A,,Mostly Cloudy,50,2012-11-03 20:00:00
3:00 PM,85,70,52,29.83,12,ESE,3.5,,,,Overcast,110,2012-11-03 21:00:00
3:00 PM,84.2,69.8,62,29.81,6.2,ESE,3.5,-,N/A,,Overcast,110,2012-11-03 21:00:00
4:00 PM,82.4,71.6,70,29.82,6.2,SE,3.5,-,N/A,,Overcast,140,2012-11-03 22:00:00
5:00 PM,80.6,73.4,79,29.82,-9999.0,South,3.5,-,N/A,,Clear,190,2012-11-03 23:00:00
6:00 PM,78,72,78,29.85,12,SW,4.6,,,,Overcast,230,2012-11-04 00:00:00
6:00 PM,77.0,73.4,89,29.84,-9999.0,SW,4.6,-,N/A,,Clear,230,2012-11-04 00:00:00
7:00 PM,77.0,71.6,83,29.85,-9999.0,SSW,2.3,-,N/A,,Clear,210,2012-11-04 01:00:00
8:00 PM,77.0,71.6,83,29.86,-9999.0,East,4.6,-,N/A,,Clear,90,2012-11-04 02:00:00